Weather History for Watertown, SD

Change the Weather History Date:

Monday, March 26, 2012

  Actual Average Record
Temperature  
Mean Temperature 48 °F 34 °F  
Max Temperature 57 °F 44 °F 73 °F (1918)
Min Temperature 39 °F 24 °F -6 °F (1964)
Degree Days  
Heating Degree Days 17 31  
Month to date heating degree days 587 955  
Since 1 July heating degree days 6096 7366  
Cooling Degree Days 0 0  
Month to date cooling degree days 5 0  
Year to date cooling degree days 5 0  
Moisture  
Dew Point 38 °F    
Average Humidity 66    
Maximum Humidity 76    
Minimum Humidity 56    
Precipitation  
Precipitation 0.00 in 0.04 in 1.40 in (1921)
Month to date precipitation 0.60 0.88  
Year to date precipitation 1.77 1.96  
Snow  
Snow 0.00 in - - ()
Month to date snowfall 1.4  
Since 1 July snowfall 19.6  
Snow Depth 0.00 in    
Sea Level Pressure  
Sea Level Pressure 29.88 in    
Wind  
Wind Speed 20 mph (ESE)    
Max Wind Speed 36 mph    
Max Gust Speed 47 mph    
Visibility 10 miles    
Events      
T = Trace of Precipitation, MM = Missing Value Source: NWS Daily Summary

Daily Weather History Graph

Daily Weather History Graph

Search for Another Location

Airport:

Trip Planner

Search our weather history database for the weather conditions in past years. The results will help you decide how hot, cold, wet, or windy it might be!

Date:

Astronomy

Mar. 26, 2012 Rise Set
Actual Time 7:19 AM CDT 7:49 PM CDT
Civil Twilight 6:50 AM CDT 8:18 PM CDT
Nautical Twilight 6:15 AM CDT 8:53 PM CDT
Astronomical Twilight 5:39 AM CDT 9:29 PM CDT
Moon 8:58 AM CDT (3/26) No Moon Set
Length of Visible Light 13h 28m
Length of Day
12h 29m
Waxing Crescent, 15% of the Moon is Illuminated
Mar 26
Waxing Crescent
Mar 30
First Quarter
Apr 6
Full
Apr 13
Last Quarter
Apr 21
New

Hourly Weather History & Observations

Time (CDT) Temp. Windchill Dew Point Humidity Pressure Visibility Wind Dir Wind Speed Gust Speed Precip Events Conditions
12:53 AM 43.0 °F 37.2 °F 30.9 °F 62% 30.15 in 10.0 mi East 10.4 mph 18.4 mph N/A   Overcast
1:53 AM 42.1 °F 34.2 °F 32.0 °F 67% 30.13 in 10.0 mi East 16.1 mph 27.6 mph N/A   Mostly Cloudy
2:53 AM 42.1 °F 35.7 °F 32.0 °F 67% 30.12 in 10.0 mi ESE 11.5 mph - N/A   Overcast
3:53 AM 42.1 °F 34.5 °F 32.0 °F 67% 30.12 in 10.0 mi ESE 15.0 mph 23.0 mph N/A   Mostly Cloudy
4:53 AM 42.1 °F 34.5 °F 32.0 °F 67% 30.09 in 10.0 mi ESE 15.0 mph 24.2 mph N/A   Partly Cloudy
5:53 AM 41.0 °F 33.5 °F 32.0 °F 70% 30.10 in 10.0 mi ESE 13.8 mph 24.2 mph N/A   Clear
6:53 AM 39.9 °F 32.1 °F 32.0 °F 73% 30.08 in 10.0 mi ESE 13.8 mph 24.2 mph N/A   Partly Cloudy
7:53 AM 39.0 °F 30.3 °F 32.0 °F 76% 30.08 in 10.0 mi ESE 16.1 mph 25.3 mph N/A   Clear
8:53 AM 39.9 °F 30.5 °F 30.0 °F 68% 30.05 in 10.0 mi ESE 19.6 mph 32.2 mph N/A   Clear
9:53 AM 43.0 °F 34.8 °F 30.9 °F 62% 30.02 in 10.0 mi ESE 18.4 mph 32.2 mph N/A   Clear
10:53 AM 48.0 °F - 34.0 °F 58% 29.99 in 10.0 mi SE 17.3 mph 29.9 mph N/A   Clear
11:53 AM 51.1 °F - 37.9 °F 61% 29.94 in 10.0 mi ESE 19.6 mph 31.1 mph N/A   Clear
12:53 PM 51.1 °F - 42.1 °F 71% 29.91 in 10.0 mi ESE 21.9 mph 39.1 mph N/A   Clear
1:33 PM 50.0 °F - 42.8 °F 76% 29.86 in 10.0 mi ESE 21.9 mph 34.5 mph N/A   Overcast
1:53 PM 52.0 °F - 43.0 °F 71% 29.87 in 10.0 mi ESE 20.7 mph 33.4 mph N/A   Mostly Cloudy
2:53 PM 52.0 °F - 43.0 °F 71% 29.81 in 10.0 mi ESE 19.6 mph 38.0 mph N/A   Scattered Clouds
3:22 PM 53.6 °F - 42.8 °F 67% 29.80 in 10.0 mi SE 18.4 mph 38.0 mph N/A   Mostly Cloudy
3:48 PM 55.4 °F - 42.8 °F 63% 29.77 in 10.0 mi ESE 20.7 mph 29.9 mph N/A   Partly Cloudy
3:53 PM 55.9 °F - 42.1 °F 60% 29.78 in 10.0 mi ESE 20.7 mph 34.5 mph N/A   Partly Cloudy
4:53 PM 55.9 °F - 42.1 °F 60% 29.70 in 10.0 mi SE 29.9 mph 42.6 mph N/A   Clear
5:53 PM 55.0 °F - 42.1 °F 62% 29.70 in 10.0 mi SE 20.7 mph 41.4 mph N/A   Clear
6:53 PM 54.0 °F - 41.0 °F 62% 29.70 in 10.0 mi SE 16.1 mph 32.2 mph N/A   Clear
7:53 PM 53.1 °F - 41.0 °F 64% 29.65 in 10.0 mi SE 21.9 mph 36.8 mph N/A   Clear
8:53 PM 52.0 °F - 39.9 °F 63% 29.62 in 10.0 mi SE 21.9 mph 33.4 mph N/A   Clear
9:53 PM 53.1 °F - 41.0 °F 64% 29.62 in 10.0 mi SSE 28.8 mph 44.9 mph N/A   Clear
10:53 PM 53.1 °F - 42.1 °F 66% 29.57 in 10.0 mi SSE 29.9 mph 39.1 mph N/A   Clear
11:53 PM 53.1 °F - 44.1 °F 71% 29.53 in 10.0 mi SSE 26.5 mph 43.7 mph N/A   Clear